Location: Banksville Park
(38.5557°N, 75.1182°W)
Time: 04:17:23
(UTC+00:00)

Envisat - Pass Details

Date: 03 December 2020
Orbit: 764 x 766 km, 98.1° (Epoch: 16 January)

Event Time Altitude Azimuth Distance (km) Brightness Sun altitude
Rises 10:46:06 0° 14° (NNE) 3,240 6.2 -14.4°
Reaches altitude 10° 10:48:26 10° 16° (NNE) 2,309 5.5 -14.0°
Maximum altitude 10:53:31 75° 102° (ESE) 795 3.2 -13.0°
Drops below altitude 10° 10:58:34 10° 188° (S) 2,292 5.6 -12.1°
Sets 11:00:52 0° 190° (S) 3,214 6.4 -11.7°
